When you browse on this site, cookies collect data to enhance your experience and personalize the content and advertising you see.
Visit our Privacy Policy to learn more. By continuing to use the site, you agree to this use of cookies and data.
EN

Hourly Weather Sofia

Today, 11 July, Saturday

Time Temperature Precipitation Wind Pressure Humidity
00:00 +17°C° 0 mm 2 mps 712 mmHg 78%
01:00 +18°C° 0 mm 1 mps 712 mmHg 80%
02:00 +16°C° 0 mm 1 mps 712 mmHg 86%
03:00 +16°C° 0 mm 1 mps 712 mmHg 87%
04:00 +16°C° 0 mm 1 mps 711 mmHg 88%
05:00 +15°C° 0 mm 1 mps 711 mmHg 89%
06:00 +18°C° 0 mm 1 mps 712 mmHg 82%
07:00 +20°C° 0 mm 1 mps 712 mmHg 76%
08:00 +22°C° 0 mm 1 mps 713 mmHg 69%
09:00 +24°C° 0 mm 1 mps 712 mmHg 63%
10:00 +26°C° 0 mm 2 mps 712 mmHg 57%
11:00 +27°C° 0 mm 2 mps 712 mmHg 50%
12:00 +28°C° 0 mm 2 mps 712 mmHg 48%
13:00 +29°C° 0 mm 2 mps 712 mmHg 46%
14:00 +29°C° 0 mm 2 mps 711 mmHg 44%
15:00 +29°C° 0 mm 2 mps 711 mmHg 46%
16:00 +29°C° 0 mm 2 mps 711 mmHg 47%
17:00 +28°C° 0 mm 2 mps 710 mmHg 49%
18:00 +26°C° 0 mm 2 mps 710 mmHg 55%
19:00 +24°C° 0 mm 2 mps 710 mmHg 62%
20:00 +22°C° 0 mm 1 mps 710 mmHg 68%
21:00 +22°C° 0 mm 1 mps 710 mmHg 70%
22:00 +21°C° 0 mm 1 mps 710 mmHg 71%
23:00 +20°C° 0 mm 1 mps 710 mmHg 72%

Tomorrow, 12 July, Sunday

Time Temperature Precipitation Wind Pressure Humidity
00:00 +19°C° 0 mm 1 mps 710 mmHg 75%
01:00 +19°C° 0 mm 1 mps 710 mmHg 78%
02:00 +18°C° 0 mm 1 mps 710 mmHg 81%
03:00 +18°C° 0 mm 1 mps 710 mmHg 82%
04:00 +18°C° 0 mm 1 mps 710 mmHg 82%
05:00 +16°C° 0 mm 1 mps 710 mmHg 83%
06:00 +19°C° 0 mm 1 mps 711 mmHg 80%
07:00 +19°C° 0 mm 2 mps 711 mmHg 76%
08:00 +21°C° 0 mm 3 mps 712 mmHg 73%
09:00 +22°C° 0 mm 3 mps 712 mmHg 70%
10:00 +24°C° 0 mm 3 mps 712 mmHg 68%
11:00 +25°C° 0 mm 4 mps 712 mmHg 65%
12:00 +25°C° 0 mm 4 mps 712 mmHg 65%
13:00 +25°C° 0 mm 4 mps 712 mmHg 64%
14:00 +25°C° 0 mm 4 mps 712 mmHg 64%
15:00 +25°C° 0 mm 4 mps 711 mmHg 66%
16:00 +23°C° 0 mm 4 mps 711 mmHg 68%
17:00 +22°C° 0 mm 4 mps 711 mmHg 70%
18:00 +21°C° 0 mm 4 mps 711 mmHg 74%
19:00 +19°C° 0 mm 3 mps 711 mmHg 78%
20:00 +18°C° 0 mm 3 mps 711 mmHg 82%
21:00 +17°C° 0 mm 2 mps 711 mmHg 83%
22:00 +16°C° 0 mm 2 mps 712 mmHg 83%
23:00 +15°C° 0 mm 2 mps 712 mmHg 84%

Day after tomorrow, 13 July, Monday

Time Temperature Precipitation Wind Pressure Humidity
00:00 +14°C° 0 mm 2 mps 712 mmHg 85%
01:00 +13°C° 0 mm 2 mps 712 mmHg 87%
02:00 +13°C° 0 mm 2 mps 712 mmHg 88%
03:00 +12°C° 0 mm 2 mps 711 mmHg 89%
04:00 +12°C° 0 mm 2 mps 711 mmHg 90%
05:00 +10°C° 0 mm 2 mps 711 mmHg 91%
06:00 +12°C° 0 mm 3 mps 711 mmHg 84%
07:00 +13°C° 0 mm 3 mps 712 mmHg 78%
08:00 +14°C° 0 mm 3 mps 712 mmHg 72%
09:00 +16°C° 0 mm 3 mps 712 mmHg 69%
10:00 +17°C° 0 mm 3 mps 712 mmHg 65%
11:00 +19°C° 0 mm 3 mps 712 mmHg 61%
12:00 +19°C° 0 mm 3 mps 712 mmHg 61%
13:00 +20°C° 0 mm 3 mps 712 mmHg 61%
14:00 +21°C° 0 mm 3 mps 712 mmHg 60%
15:00 +21°C° 0 mm 3 mps 712 mmHg 61%
16:00 +21°C° 0 mm 3 mps 711 mmHg 61%
17:00 +21°C° 0 mm 3 mps 711 mmHg 62%
18:00 +19°C° 0 mm 2 mps 711 mmHg 69%
19:00 +18°C° 0 mm 2 mps 711 mmHg 76%
20:00 +16°C° 0 mm 1 mps 711 mmHg 84%
21:00 +15°C° 0 mm 1 mps 711 mmHg 85%
22:00 +15°C° 0 mm 1 mps 711 mmHg 86%
23:00 +13°C° 0 mm 0 mps 712 mmHg 87%

14 July, Tuesday

Time Temperature Precipitation Wind Pressure Humidity
00:00 +12°C° 0 mm 0 mps 712 mmHg 87%
01:00 +12°C° 0 mm 0 mps 712 mmHg 87%
02:00 +12°C° 0 mm 0 mps 712 mmHg 87%
03:00 +11°C° 0 mm 0 mps 711 mmHg 88%
04:00 +12°C° 0 mm 1 mps 711 mmHg 89%
05:00 +12°C° 0 mm 1 mps 711 mmHg 90%
06:00 +14°C° 0 mm 1 mps 711 mmHg 83%
07:00 +16°C° 0 mm 1 mps 712 mmHg 77%
08:00 +19°C° 0 mm 1 mps 712 mmHg 70%
09:00 +20°C° 0 mm 1 mps 712 mmHg 64%
10:00 +22°C° 0 mm 1 mps 712 mmHg 57%
11:00 +24°C° 0 mm 2 mps 712 mmHg 50%
12:00 +24°C° 0 mm 2 mps 712 mmHg 48%
13:00 +25°C° 0 mm 2 mps 712 mmHg 46%
14:00 +26°C° 0 mm 2 mps 711 mmHg 44%
15:00 +25°C° 0 mm 1 mps 711 mmHg 45%
16:00 +25°C° 0 mm 1 mps 711 mmHg 46%
17:00 +25°C° 0 mm 1 mps 710 mmHg 47%
18:00 +23°C° 0 mm 1 mps 710 mmHg 56%
19:00 +21°C° 0 mm 1 mps 710 mmHg 64%
20:00 +19°C° 0 mm 1 mps 710 mmHg 72%
21:00 +18°C° 0 mm 1 mps 710 mmHg 74%
22:00 +16°C° 0 mm 1 mps 710 mmHg 75%
23:00 +16°C° 0 mm 1 mps 711 mmHg 76%

15 July, Wednesday

Time Temperature Precipitation Wind Pressure Humidity
00:00 +15°C° 0 mm 1 mps 711 mmHg 78%
01:00 +15°C° 0 mm 1 mps 711 mmHg 80%
02:00 +14°C° 0 mm 1 mps 711 mmHg 81%
03:00 +14°C° 0 mm 1 mps 710 mmHg 83%
04:00 +13°C° 0 mm 1 mps 710 mmHg 84%
05:00 +13°C° 0 mm 1 mps 710 mmHg 85%
06:00 +15°C° 0 mm 1 mps 711 mmHg 78%
07:00 +18°C° 0 mm 1 mps 711 mmHg 71%
08:00 +20°C° 0 mm 1 mps 711 mmHg 64%
09:00 +22°C° 0 mm 1 mps 711 mmHg 59%
10:00 +24°C° 0 mm 1 mps 711 mmHg 54%
11:00 +26°C° 0 mm 1 mps 712 mmHg 49%
12:00 +26°C° 0 mm 1 mps 711 mmHg 48%
13:00 +27°C° 0 mm 1 mps 711 mmHg 46%
14:00 +28°C° 0 mm 1 mps 711 mmHg 44%
15:00 +27°C° 0.1 mm 1 mps 710 mmHg 47%
16:00 +27°C° 0.1 mm 1 mps 710 mmHg 50%
17:00 +26°C° 0.1 mm 1 mps 710 mmHg 53%
18:00 +24°C° 0.1 mm 1 mps 709 mmHg 60%
19:00 +23°C° 0.1 mm 1 mps 709 mmHg 66%
20:00 +21°C° 0.1 mm 1 mps 709 mmHg 72%
21:00 +20°C° 0.2 mm 1 mps 709 mmHg 75%
22:00 +19°C° 0.2 mm 1 mps 710 mmHg 77%
23:00 +16°C° 0.2 mm 0 mps 710 mmHg 79%

16 July, Thursday

Time Temperature Precipitation Wind Pressure Humidity
00:00 +16°C° 0 mm 0 mps 710 mmHg 80%
01:00 +16°C° 0 mm 1 mps 710 mmHg 80%
02:00 +16°C° 0 mm 1 mps 710 mmHg 81%
03:00 +14°C° 0 mm 0 mps 709 mmHg 81%
04:00 +14°C° 0 mm 0 mps 709 mmHg 82%
05:00 +13°C° 0 mm 0 mps 709 mmHg 83%
06:00 +15°C° 0 mm 0 mps 709 mmHg 78%
07:00 +18°C° 0 mm 0 mps 710 mmHg 73%
08:00 +20°C° 0 mm 0 mps 710 mmHg 68%
09:00 +21°C° 0 mm 0 mps 710 mmHg 60%
10:00 +25°C° 0 mm 1 mps 710 mmHg 52%
11:00 +27°C° 0 mm 1 mps 711 mmHg 45%
12:00 +28°C° 0 mm 1 mps 710 mmHg 42%
13:00 +28°C° 0 mm 2 mps 710 mmHg 40%
14:00 +29°C° 0 mm 2 mps 710 mmHg 37%
15:00 +28°C° 0 mm 2 mps 709 mmHg 39%
16:00 +28°C° 0 mm 2 mps 709 mmHg 42%
17:00 +28°C° 0 mm 2 mps 709 mmHg 44%
18:00 +26°C° 0 mm 2 mps 708 mmHg 50%
19:00 +23°C° 0 mm 1 mps 708 mmHg 57%
20:00 +21°C° 0 mm 1 mps 708 mmHg 64%
21:00 +21°C° 0 mm 1 mps 708 mmHg 65%
22:00 +18°C° 0 mm 0 mps 709 mmHg 65%
23:00 +17°C° 0 mm 0 mps 709 mmHg 66%
Show more